Location: Sigmaringen
(48.0900°N, 9.2120°E)
Time: 23:59:36
(UTC+01:00)

ISS - Pass Details

Date: 11 November 2017
Orbit: 401 x 407 km, 51.6° (Epoch: 18 November)

Event Time Altitude Azimuth Distance (km) Brightness Sun altitude
Exits shadow 06:42:56 - 292° (WNW) 1,495 -1.7 -7.2°
Reaches altitude 10° 06:43:01 10° 291° (WNW) 1,457 -1.7 -7.1°
Maximum altitude 06:46:17 80° 206° (SSW) 413 -3.8 -6.6°
Drops below altitude 10° 06:49:32 10° 118° (ESE) 1,452 0.7 -6.1°
Sets 06:51:36 0° 118° (ESE) 2,309 2.4 -5.8°
